sat.trackr.live / text

‹ back to catalog

STARLINK-31437

NORAD 60057 · 2024-112V

PAYLOAD ACTIVE UNKNOWN

§ Identity

Operator
Country
US
Launch date
2024-06-08
Launch site
AFWTR
Launch vehicle
Mass (kg)
RCS (m²)

Purposes: comms

External: N2YO · Heavens-Above · Gunter

§ Orbital elements

Epoch: 2026-09-21T15:41:58.264512Z

Period
93.85 min
Inclination
53.1572°
Eccentricity
0.0001364
Mean motion
15.34391186 rev/d
Perigee alt
461.8 km
Apogee alt
463.7 km
Semi-major
6,840.9 km
B*
9.8137e-6
RAAN
246.0625°
Arg perigee
87.3938°
Mean anomaly
272.7221°
Rev number
12,862

§ Raw data

STARLINK-314371 60057U 24112V   26264.65414658 -.00000045  00000+0  98137-5 0  99992 60057  53.1572 246.0625 0001364  87.3938 272.7221 15.34391186128623

JSON: /api/v1/satellites/60057 · /tle

For live sub-satellite position, see the globe view (requires WebGL).

§ Visibility from observer

Set your observer location to see the next 7 days of passes ≥ 10°. The values pass through the URL so the page stays shareable.

No JS? Fill the form by hand. The geolocation button needs JavaScript.